Location: Unspecified
(38.9820°N, 94.4650°W)
Time: 02:36:44
(UTC-05:00)

Resurs 1-4 Rocket - Visible Passes

Search period start: 19 August 2017 00:00
Search period end: 29 August 2017 00:00
Orbit: 799 x 815 km, 98.5° (Epoch: 18 August)

Date Brightness Start Highest point End Pass type
(mag) Time Alt. Az. Time Alt. Az. Time Alt. Az.
19 Aug 2.8 03:15:01 10° NNE 03:19:26 49° ENE 03:19:26 49° ENE visible
19 Aug 3.6 04:55:59 10° NNW 04:59:33 19° WNW 05:00:31 18° WNW visible
20 Aug 3.6 02:50:51 10° NE 02:54:29 29° ENE 02:54:29 29° ENE visible
20 Aug 3.0 04:30:42 10° N 04:35:14 30° WNW 04:35:33 30° WNW visible
21 Aug 4.3 02:27:08 10° NE 02:29:32 17° ENE 02:29:32 17° ENE visible
21 Aug 2.4 04:05:45 10° N 04:10:36 50° WNW 04:10:36 50° WNW visible
22 Aug 2.2 03:41:03 10° NNE 03:45:39 69° N 03:45:39 69° N visible
22 Aug 4.1 05:24:08 10° NW 05:25:19 11° WNW 05:26:31 10° WNW visible
23 Aug 2.9 03:16:34 10° NNE 03:20:42 47° ENE 03:20:42 47° ENE visible
23 Aug 3.7 04:57:38 10° NNW 05:01:07 18° WNW 05:01:46 18° WNW visible
24 Aug 3.7 02:52:22 10° NNE 02:55:44 29° ENE 02:55:44 29° ENE visible
24 Aug 3.1 04:32:18 10° N 04:36:48 29° WNW 04:36:49 29° WNW visible
25 Aug 4.4 02:28:37 10° NE 02:30:47 17° ENE 02:30:47 17° ENE visible
25 Aug 2.5 04:07:20 10° N 04:11:51 47° NW 04:11:51 47° NW visible
26 Aug 2.5 03:42:37 10° NNE 03:46:54 60° N 03:46:54 60° N visible
26 Aug 4.2 05:26:07 10° NW 05:26:52 10° WNW 05:27:37 10° WNW visible
27 Aug 3.1 03:18:07 10° NNE 03:21:56 44° NE 03:21:56 44° NE visible
27 Aug 3.7 04:59:17 10° NNW 05:02:40 18° WNW 05:03:01 17° WNW visible
28 Aug 3.8 02:53:54 10° NNE 02:56:59 28° ENE 02:56:59 28° ENE visible
28 Aug 3.2 04:33:54 10° N 04:38:03 28° WNW 04:38:03 28° WNW visible
